This demonstration page uses our WeatherBlox Daily Observations layout. Learn more.

41.55636, -103.73856

Hourly Observations for January 9, 2019

Temp ( °F °C ) Dew Point ( °F °C ) Humidity (%) Winds ( mph kmh ) Pressure ( in mb ) Visibility ( mi km ) Precip ( " mm )
12:58 am 00:58 Clear 28 -2.4 14 -10 56 56 S 8 13 30.53 1034 10 16.0934 N/A
1:58 am 01:58 Clear 28 -2 10 -12.3 46 46 SE 8 13 30.53 1034 10 16.0934 N/A
2:58 am 02:58 Clear 27 -2.9 10 -12.5 48 48 SSE 6 9 30.55 1035 10 16.0934 N/A
3:58 am 03:58 Clear 24 -4.2 12 -10.9 60 60 S 7 11 30.56 1035 10 16.0934 N/A
4:58 am 04:58 Clear 24 -4.7 12 -10.9 62 62 SSW 8 13 30.56 1035 10 16.0934 N/A
5:58 am 05:58 Clear 23 -5.2 9 -12.6 56 56 SSE 8 13 30.53 1034 10 16.0934 N/A
6:58 am 06:58 Clear 23 -5.2 8 -13.3 53 53 S 9 15 30.52 1034 10 16.0934 N/A
7:58 am 07:58 Clear 21 -6.3 9 -12.9 60 60 S 9 15 30.51 1033 10 16.0934 N/A
8:58 am 08:58 Clear 21 -5.9 13 -10.8 69 69 SW 13 20 30.51 1033 10 16.0934 N/A
9:58 am 09:58 Clear 23 -5 12 -11.1 63 63 SW 14 22 30.48 1032 10 16.0934 N/A
10:58 am 10:58 Mostly Cloudy 25 -4 12 -11.1 58 58 SW 13 20 30.45 1031 10 16.0934 N/A
11:58 am 11:58 Cloudy 27 -2.9 13 -10.5 56 56 SW 13 20 30.46 1031 10 16.0934 N/A
12:58 pm 12:58 Mostly Cloudy 27 -2.6 14 -9.9 58 58 SSW 14 22 30.48 1032 10 16.0934 N/A
1:58 pm 13:58 Mostly Clear 26 -3.3 14 -10.2 59 59 SSW 12 19 30.45 1031 10 16.0934 N/A
2:58 pm 14:58 Mostly Sunny 29 -1.7 14 -10.1 53 53 SSW 14 22 30.43 1031 10 16.0934 N/A
3:58 pm 15:58 Sunny 31 -0.8 16 -8.9 55 55 SSW 14 22 30.44 1031 10 16.0934 N/A
4:58 pm 16:58 Sunny 36 2.3 16 -8.9 44 44 SSW 17 28 30.4 1029 10 16.0934 N/A
5:58 pm 17:58 Sunny 40 4.7 15 -9.2 36 36 SSW 23 37 30.34 1027 10 16.0934 N/A
6:58 pm 18:58 Sunny 43 6.3 15 -9.2 32 32 SSW 20 31 30.29 1026 10 16.0934 N/A
7:58 pm 19:58 Sunny 44 6.5 14 -9.8 30 30 SSW 23 37 30.24 1024 10 16.0934 N/A
8:58 pm 20:58 Sunny 42 5.8 14 -9.8 32 32 S 18 30 30.23 1024 10 16.0934 N/A
9:56 pm 21:56 Sunny 41 5 15 -9.6 34 34 SSW 16 26 30.23 1024 10 16.0934 N/A
10:56 pm 22:56 Sunny 39 4 16 -9.1 38 38 SSW 13 20 30.23 1024 10 16.0934 N/A
11:56 pm 23:56 Mostly Cloudy 38 3.1 15 -9.6 39 39 SSW 14 22 30.23 1024 10 16.0934 N/A

Powered by AerisWeather